Terminal Aerodrome Forecast
Issued by NWS

Home | Current Version | Previous Version | Text Only | Print | Product List | Glossary On
Versions: 1 2 3 4 5 6 7 8 9 10 11 12 13 14 15 16
000
FTUS43 KILX 131700
TAFDEC
TAF
KDEC 131738Z 1318/1418 31006KT P6SM BKN025 BKN100
     FM132100 VRB05KT P6SM SCT040
     FM140500 VRB06KT P6SM SKC=

USA.gov is the U.S. government's official web portal to all federal, state and local government web resources and services.